{"data":{"norad_id":61943,"epoch":"2026-09-21T21:59:12.268608Z","epoch_age_seconds":63289,"freshness":"FRESH","line1":"1 61943U 24209E   26264.91611422  .00163902  00000+0  13311-2 0  9997","line2":"2 61943  53.1580 124.2202 0002501  26.4206 333.6939 15.69709002107494","mean_motion":15.69709002,"eccentricity":0.0002501,"inclination_deg":53.158,"raan_deg":124.2202,"arg_perigee_deg":26.4206,"mean_anomaly_deg":333.6939,"bstar":0.0013311,"rev_number":10749,"period_min":91.736748541626,"perigee_km":358.04446587704,"apogee_km":361.41474675352,"semimajor_km":6737.8666063153,"source":"CELESTRAK","updated_at":"2026-09-22T09:00:49.454318Z"}}